Content
SEND FEEDBACK

Daily
Averages
Monthly
Summary
United States of America

NEW YORK - CENTRAL PARK, NEW YORK


Home > North America > United States > New York
Elevation: 14 feet     Latitude: 40 47N     Longitude: 073 58W

WEATHER
 
SELECT A DAY
Number of Records: 148,168;   Date Range: 11/1/95 - 8/12/14
 
SHARE

PRINT THIS DATA

[ ← Previous Day ]
WEATHER ALMANAC - MARCH 23, 2013
[ Next Day → ]
[ °C ]   °F
Weather ElementAverageHighLow
Temperature38.8 °F45 °F (3:51 pm)33.1 °F (6:51 am)
Dewpoint17 °F21 °F (1:51 am)15.1 °F (6:51 pm)
Humidity42 %57 % (1:51 am)31 % (3:51 pm)
Barometer29.87 in29.93 in (11:51 pm)29.82 in (3:51 pm)
Wind Speed9.4 mph13.8 mph (11:51 am)
Wind Gust26.5 mph (5:51 pm)
Weather ElementAverage
Visibility10 mi
Wind DirectionSW (229.6 °)

Weather ElementTotal
Precipitation---
Heating Degree Days26 (Base 65)
Averaged from 23 records on March 23, 2013
WEATHER CONDITIONS BREAKOUT
WIND DIRECTION BREAKOUT
WEATHER BY HOUR - MARCH 23, 2013
[ °C ]   °F
Local TimeTemperatureDewpointHumidityBarometerVisibilityWind DirectionWind SpeedGust SpeedPrecipitationEventsConditions
1:51 AM35.1 °F21.0 °F57 %29.87 in10.0 miWest (280°)6.9 mphPartly Cloudy
2:51 AM36.0 °F17.1 °F46 %29.88 in10.0 miWNW (290°)9.2 mphOvercast
3:51 AM35.1 °F16.0 °F46 %29.85 in10.0 miVariable4.6 mph19.6 mphClear
4:51 AM35.1 °F16.0 °F46 %29.86 in10.0 miVariable5.8 mphClear
5:51 AM34.0 °F17.1 °F50 %29.87 in10.0 miWNW (290°)8.1 mph16.1 mphPartly Cloudy
6:51 AM33.1 °F18.0 °F54 %29.88 in10.0 miVariable6.9 mphClear
7:51 AM34.0 °F18.0 °F52 %29.88 in10.0 miWest (280°)9.2 mph18.4 mphClear
8:51 AM36.0 °F18.0 °F48 %29.87 in10.0 miWest (280°)8.1 mph25.3 mphClear
9:51 AM37.0 °F18.0 °F46 %29.86 in10.0 miWest (280°)12.7 mph23.0 mphClear
10:51 AM39.0 °F19.0 °F45 %29.85 in10.0 miWNW (300°)11.5 mph25.3 mphClear
11:51 AM41.0 °F18.0 °F40 %29.86 in10.0 miWNW (290°)13.8 mph24.2 mphScattered Clouds
12:51 PM42.1 °F17.1 °F37 %29.86 in10.0 miWNW (300°)10.4 mph23.0 mphOvercast
1:51 PM43.0 °F17.1 °F35 %29.84 in10.0 miWNW (290°)9.2 mph25.3 mphOvercast
2:51 PM43.0 °F16.0 °F34 %29.83 in10.0 miWest (280°)12.7 mph25.3 mphMostly Cloudy
3:51 PM45.0 °F16.0 °F31 %29.82 in10.0 miWNW (300°)9.2 mph23.0 mphMostly Cloudy
4:51 PM43.0 °F17.1 °F35 %29.83 in10.0 miWest (280°)10.4 mph21.9 mphPartly Cloudy
5:51 PM43.0 °F16.0 °F34 %29.84 in10.0 miWNW (300°)12.7 mph26.5 mphScattered Clouds
6:51 PM43.0 °F15.1 °F32 %29.86 in10.0 miWNW (300°)10.4 mph20.7 mphOvercast
7:51 PM41.0 °F16.0 °F36 %29.87 in10.0 miNW (310°)12.7 mph23.0 mphClear
8:51 PM39.9 °F16.0 °F38 %29.90 in10.0 miNW (320°)8.1 mph19.6 mphClear
9:51 PM39.0 °F16.0 °F39 %29.91 in10.0 miVariable5.8 mph16.1 mphClear
10:51 PM37.9 °F16.0 °F41 %29.92 in10.0 miNW (310°)8.1 mph20.7 mphPartly Cloudy
11:51 PM37.0 °F17.1 °F44 %29.93 in10.0 miNorthClear
Hourly data recorded from KNYC, located miles away from New York - Central Park, New York







STORIES FROM OUR PARTNERS